Sault Ste Marie, MI

11:18 AM EDT on June 28, 2017 (GMT -0400)
Sault Ste Marie Municipal / Sanderson Field

Weather History for KANJ - December, 2013

Change the Weather History Date:

Monday, December 9, 2013

  Actual Average Record
Temperature  
Mean Temperature 17 °F 25 °F  
Max Temperature 27 °F 31 °F 51 °F (1946)
Min Temperature 7 °F 19 °F -20 °F (1976)
Degree Days  
Heating Degree Days 48 40  
Month to date heating degree days 399 349  
Since 1 July heating degree days 2292 2281  
Moisture  
Dew Point 16 °F    
Average Humidity 77    
Maximum Humidity 92    
Minimum Humidity 61    
Precipitation  
Precipitation 0.18 in 0.09 in 1.46 in (1995)
Month to date precipitation 1.09 0.91  
Year to date precipitation 47.07 31.07  
Snow  
Snow 3.40 in 1.00 in 19.40 in (1995)
Month to date snowfall 6.4 8.9  
Since 1 July snowfall 28.1 25.6  
Snow Depth 7.00 in    
Sea Level Pressure  
Sea Level Pressure 29.79 in    
Wind  
Wind Speed 11 mph (SSE)    
Max Wind Speed 25 mph    
Max Gust Speed 36 mph    
Visibility 5 miles    
Events Fog , Snow    
T = Trace of Precipitation, MM = Missing Value Source: NWS Daily Summary

Daily Weather History Graph

Daily Weather History Graph

Search for Another Location

Airport or City:

Trip Planner

Search our weather history database for the weather conditions in past years. The results will help you decide how hot, cold, wet, or windy it might be!

Date:

Astronomy

Dec. 09, 2013 Rise Set
Actual Time 8:09 AM EST 4:50 PM EST
Civil Twilight 7:34 AM EST 5:25 PM EST
Nautical Twilight 6:56 AM EST 6:03 PM EST
Astronomical Twilight 6:20 AM EST 6:39 PM EST
Moon 12:41 PM EST (12/9) No Moon Set
Length of Visible Light 9h 50m
Length of Day
8h 40m
Waxing Crescent, 51% of the Moon is Illuminated
Dec 9
Waxing Crescent
Dec 17
Full
Dec 25
Last Quarter
Jan 1
New
Jan 7
First Quarter

Hourly Weather History & Observations

Time (EST) Temp. Windchill Dew Point Humidity Pressure Visibility Wind Dir Wind Speed Gust Speed Precip Events Conditions
12:20 AM 19.0 °F 11.1 °F 15.1 °F 85% 30.05 in 2.0 mi ENE 5.8 mph - 0.00 in Snow Light Snow
12:33 AM 19.0 °F 12.3 °F 15.1 °F 85% 30.03 in 1.8 mi ENE 4.6 mph - 0.01 in Snow Light Snow
12:55 AM 19.0 °F 10.0 °F 16.0 °F 88% 30.05 in 1.5 mi East 6.9 mph - 0.02 in Snow Light Snow
1:42 AM 19.9 °F 12.1 °F 16.0 °F 85% 29.97 in 2.0 mi East 5.8 mph - 0.01 in Snow Light Snow
1:51 AM 19.4 °F 12.8 °F 15.8 °F 86% 29.96 in 1.5 mi East 4.6 mph - 0.01 in Snow Light Snow
1:55 AM 19.9 °F 14.9 °F 16.0 °F 85% 30.00 in 1.8 mi ENE 3.5 mph - 0.02 in Snow Light Snow
2:55 AM 19.9 °F 13.4 °F 17.1 °F 89% 29.97 in 1.0 mi ENE 4.6 mph - 0.02 in Snow Light Snow
3:22 AM 21.0 °F 14.6 °F 18.0 °F 88% 29.91 in 2.0 mi ENE 4.6 mph - 0.02 in Snow Light Snow
3:36 AM 21.0 °F 14.6 °F 18.0 °F 88% 29.91 in 2.5 mi ENE 4.6 mph - 0.02 in Snow Light Snow
3:52 AM 21.2 °F 14.9 °F 17.6 °F 86% 29.90 in 3.0 mi ENE 4.6 mph - 0.02 in Snow Light Snow
3:55 AM 21.0 °F 13.4 °F 18.0 °F 88% 29.93 in 4.0 mi ENE 5.8 mph - 0.02 in Snow Light Snow
4:11 AM 21.0 °F 13.4 °F 18.0 °F 88% 29.88 in 1.8 mi ENE 5.8 mph - 0.00 in Snow Light Snow
4:18 AM 21.0 °F 13.4 °F 18.0 °F 88% 29.88 in 1.8 mi ENE 5.8 mph - 0.01 in Snow Light Snow
4:27 AM 21.0 °F 13.4 °F 18.0 °F 88% 29.86 in 2.0 mi ENE 5.8 mph - 0.01 in Snow Light Snow
4:36 AM 21.0 °F 13.4 °F 18.0 °F 88% 29.85 in 1.5 mi ENE 5.8 mph - 0.01 in Snow Light Snow
4:55 AM 21.0 °F 11.4 °F 18.0 °F 88% 29.87 in 2.0 mi ENE 8.1 mph - 0.01 in Snow Light Snow
5:10 AM 21.0 °F 13.4 °F 18.0 °F 88% 29.82 in 2.5 mi ENE 5.8 mph - 0.00 in Snow Light Snow
5:19 AM 21.0 °F 13.4 °F 18.0 °F 88% 29.81 in 3.0 mi ENE 5.8 mph - 0.01 in Snow Light Snow
5:30 AM 21.0 °F 13.4 °F 18.0 °F 88% 29.81 in 2.5 mi ENE 5.8 mph - 0.01 in Snow Light Snow
5:55 AM 21.9 °F 15.7 °F 19.0 °F 89% 29.81 in 2.0 mi East 4.6 mph - 0.01 in Snow Light Snow
6:07 AM 21.9 °F 15.7 °F 19.0 °F 89% 29.77 in 1.8 mi ENE 4.6 mph - 0.00 in Snow Light Snow
6:55 AM 21.0 °F 13.4 °F 18.0 °F 88% 29.79 in 1.2 mi ENE 5.8 mph - 0.02 in Snow Light Snow
7:55 AM 21.0 °F 13.4 °F 18.0 °F 88% 29.76 in 1.0 mi ENE 5.8 mph - 0.03 in Snow Light Snow
8:16 AM 21.0 °F 13.4 °F 18.0 °F 88% 29.72 in 1.8 mi ENE 5.8 mph - 0.00 in Snow Light Snow
8:25 AM 21.0 °F 14.6 °F 18.0 °F 88% 29.72 in 2.0 mi East 4.6 mph - 0.01 in Snow Light Snow
8:32 AM 21.0 °F 13.4 °F 18.0 °F 88% 29.71 in 1.0 mi ENE 5.8 mph - 0.01 in Snow Light Snow
8:43 AM 21.0 °F 14.6 °F 18.0 °F 88% 29.71 in 0.8 mi ENE 4.6 mph - 0.01 in Snow Light Snow
8:55 AM 21.0 °F - 18.0 °F 88% 29.75 in 0.5 mi Calm Calm - 0.02 in Fog , Snow Snow
9:04 AM 21.0 °F - 18.0 °F 88% 29.71 in 1.2 mi Calm Calm - 0.00 in Snow Light Snow
9:17 AM 21.0 °F - 18.0 °F 88% 29.71 in 3.0 mi Calm Calm - 0.00 in Snow Light Snow
9:55 AM 21.0 °F - 19.0 °F 92% 29.74 in 2.5 mi Calm Calm - 0.00 in Snow Light Snow
10:05 AM 21.0 °F - 19.0 °F 92% 29.70 in 4.0 mi Calm Calm - 0.00 in Snow Light Snow
10:35 AM 23.0 °F - 19.0 °F 85% 29.70 in 8.0 mi Calm Calm - 0.00 in   Overcast
10:47 AM 21.9 °F - 19.0 °F 89% 29.69 in 10.0 mi Calm Calm - 0.00 in   Overcast
10:55 AM 21.9 °F 17.2 °F 18.0 °F 85% 29.73 in 10.0 mi SSW 3.5 mph - 0.00 in   Overcast
11:26 AM 23.0 °F 17.0 °F 19.0 °F 85% 29.69 in 10.0 mi South 4.6 mph - N/A   Overcast
11:55 AM 26.1 °F 17.6 °F 21.0 °F 81% 29.71 in 8.0 mi WSW 8.1 mph - N/A   Overcast
12:10 PM 26.1 °F 18.4 °F 21.0 °F 81% 29.68 in 2.5 mi WSW 6.9 mph - 0.00 in Snow Light Snow
12:15 PM 25.0 °F 18.1 °F 21.0 °F 85% 29.68 in 1.8 mi SW 5.8 mph - 0.00 in Snow Light Snow
12:26 PM 25.0 °F 18.1 °F 21.0 °F 85% 29.67 in 1.2 mi SSW 5.8 mph - 0.01 in Snow Light Snow
12:35 PM 26.1 °F 18.4 °F 23.0 °F 88% 29.66 in 3.0 mi WSW 6.9 mph - 0.01 in Snow Light Snow
12:55 PM 26.1 °F 15.0 °F 21.0 °F 81% 29.68 in 10.0 mi WSW 12.7 mph - 0.01 in   Overcast
1:09 PM 27.0 °F 16.7 °F 19.9 °F 75% 29.66 in 10.0 mi WSW 11.5 mph - N/A   Overcast
1:16 PM 26.1 °F 14.5 °F 19.9 °F 78% 29.66 in 10.0 mi WSW 13.8 mph - N/A   Overcast
1:23 PM 26.1 °F 13.6 °F 19.0 °F 75% 29.66 in 10.0 mi WSW 16.1 mph 20.7 mph N/A   Overcast
1:55 PM 25.0 °F 13.6 °F 18.0 °F 75% 29.68 in 10.0 mi WSW 12.7 mph - N/A   Overcast
2:55 PM 24.1 °F 10.6 °F 15.1 °F 69% 29.68 in 10.0 mi WSW 17.3 mph 24.2 mph N/A   Overcast
3:51 PM 23.0 °F 9.2 °F 14.0 °F 68% 29.66 in 10.0 mi SW 17.3 mph 23.0 mph N/A   Overcast
3:55 PM 21.9 °F 7.8 °F 14.0 °F 72% 29.70 in 10.0 mi WSW 17.3 mph - N/A   Overcast
4:31 PM 21.0 °F 5.4 °F 12.9 °F 71% 29.67 in 9.0 mi WSW 20.7 mph 26.5 mph 0.00 in Snow Light Snow
4:48 PM 19.9 °F 5.7 °F 12.9 °F 74% 29.68 in 8.0 mi SW 16.1 mph - 0.00 in Snow Light Snow
4:55 PM 19.9 °F 5.7 °F 12.9 °F 74% 29.72 in 8.0 mi SW 16.1 mph 24.2 mph 0.00 in Snow Light Snow
5:16 PM 19.9 °F 5.2 °F 12.0 °F 71% 29.70 in 10.0 mi SW 17.3 mph 25.3 mph 0.00 in   Overcast
5:55 PM 18.0 °F 1.7 °F 9.0 °F 68% 29.75 in 6.0 mi WSW 19.6 mph 32.2 mph 0.00 in Snow Light Snow
6:21 PM 17.1 °F 3.0 °F 9.0 °F 71% 29.72 in 7.0 mi West 13.8 mph 26.5 mph 0.00 in Snow Light Snow
6:32 PM 17.1 °F 0.1 °F 7.0 °F 65% 29.72 in 7.0 mi West 20.7 mph 28.8 mph 0.00 in   Scattered Clouds
6:55 PM 17.1 °F 0.1 °F 6.1 °F 62% 29.77 in 7.0 mi West 20.7 mph 28.8 mph 0.00 in   Clear
7:55 PM 15.1 °F -3.3 °F 5.0 °F 64% 29.79 in 9.0 mi West 23.0 mph 31.1 mph 0.00 in   Scattered Clouds
8:55 PM 12.9 °F -3.4 °F 3.0 °F 65% 29.83 in 10.0 mi West 16.1 mph 29.9 mph 0.00 in   Clear
9:55 PM 10.9 °F -5.4 °F 1.9 °F 67% 29.85 in 10.0 mi West 15.0 mph 28.8 mph N/A   Clear
10:55 PM 9.0 °F -9.0 °F 1.0 °F 70% 29.87 in 10.0 mi WSW 17.3 mph 24.2 mph N/A   Mostly Cloudy
11:55 PM 8.1 °F -11.2 °F -0.9 °F 67% 29.88 in 10.0 mi WSW 19.6 mph 25.3 mph N/A   Mostly Cloudy